Torna al catalogo

FALCONSAT

AttivoScienzaLEO
NORAD 26064·PAYLOAD·🇺🇸 United States

Lanciato Jan 27, 2000 da Vandenberg Space Force Base

Loading…

Prossimi Passaggi (prossime 24 ore)

TLE

AggiornatoSource: Space-Track

Epoca: Sep 14, 2026, 06:43 UTC

1 26064U 00004D   26257.27990221  .00000065  00000-0  41285-4 0  9991
2 26064 100.1933 203.1615 0037212 165.5376 194.6879 14.37293957395565

Traccia FALCONSAT in tempo reale con AllMySat

Download on the App Store